Miscellaneous Local Product
Issued by NWS Hastings, NE

Home | Current Version | Previous Version | Text Only | Print | Product List | Glossary Off
Versions: 1 2 3 4 5 6 7 8 9 10 11 12 13 14 15 16 17 18 19 20 21 22 23 24 25 26 27 28 29 30 31 32 33 34 35 36 37 38 39 40 41 42 43 44 45 46 47 48 49 50

522
AXUS43 KGID 261002
MISGRI

GID CWA HOURLY WEATHER ROUNDUP
NATIONAL WEATHER SERVICE HASTINGS NE
500 AM CDT TUE JUL 26 2016

NOTE: "FAIR" INDICATES FEW OR NO CLOUDS BELOW 12,000 FEET WITH NO
SIGNIFICANT WEATHER AND/OR OBSTRUCTIONS TO VISIBILITY.

...SOUTH CENTRAL NEBRASKA...

CITY           SKY/WX    TMP DP  RH WIND       PRES   REMARKS
GRAND ISLAND   CLEAR     64  61  90 S6        30.10F
HASTINGS       CLEAR     66  60  81 S3        30.11F
KEARNEY        CLEAR     63  59  88 S3        30.11F
ORD            CLEAR     64  60  87 CALM      30.09S
YORK           CLEAR     64  63  94 CALM      30.10S
AURORA         CLEAR     62  61  97 CALM      30.10S
LEXINGTON      CLEAR     66  63  89 SE6       30.11S
HOLDREGE       CLEAR     63  60  92 SE6       30.11S
HEBRON         CLEAR     60  58  95 CALM      30.09S

...NEBRASKA PANHANDLE...

CITY           SKY/WX    TMP DP  RH WIND       PRES   REMARKS
CHADRON        CLEAR     72  61  68 SW3       30.00S
ALLIANCE       CLEAR     64  62  93 SE12      30.06F
SCOTTSBLUFF    CLEAR     65  61  87 E8        30.06S
SIDNEY         CLEAR     64  62  93 S12       30.11S

...WESTERN AND NORTH CENTRAL NEBRASKA...

CITY           SKY/WX    TMP DP  RH WIND       PRES   REMARKS
VALENTINE      CLEAR     69  62  78 S14       30.05F
AINSWORTH      CLEAR     66  62  87 S9        30.08F
ONEILL         CLEAR     65  62  87 S5        30.08F
BROKEN BOW     CLEAR     62  60  93 S3        30.10F
IMPERIAL       CLEAR     66  63  90 S7        30.11S
NORTH PLATTE   CLEAR     64  63  96 E6        30.11S
MCCOOK         CLEAR     67  63  87 S6        30.10S

...EASTERN NEBRASKA...

CITY           SKY/WX    TMP DP  RH WIND       PRES   REMARKS
NORFOLK        CLEAR     62  61  96 E3        30.09S
SO SIOUX CITY  CLEAR     65  62  90 E6        30.08S
TEKAMAH        PTCLDY    61  59  93 SW3       30.08S
COLUMBUS         N/A     59  52  77 CALM      30.10S VSB<1/4
ALBION         CLEAR     61  58  91 CALM      30.10S
OMAHA EPPLEY   CLEAR     65  62  90 CALM      30.08S
OFFUTT AFB     CLEAR     62  62 100 CALM      30.08R
MILLARD        CLEAR     67  66  95 CALM      30.08R FOG
LINCOLN        CLEAR     63  62  97 N5        30.09R
NEBRASKA CITY  PTCLDY    67  67 100 CALM      30.09R
BEATRICE       CLEAR     62  61  96 CALM      30.09R
FALLS CITY     CLEAR     66  65  96 CALM      30.06S

...NORTHERN KANSAS...

CITY           SKY/WX    TMP DP  RH WIND       PRES   REMARKS
GOODLAND       PTCLDY    66  64  93 S13       30.12F
HILL CITY      CLEAR     67  66  97 CALM      30.10S
NORTON         SUNNY     68  64  88 SE5       30.10S
SMITH CENTER   CLEAR     64  63  94 E8        30.09F
BELOIT         CLEAR     63  63 100 CALM      30.07S
HAYS           PTCLDY    66  61  82 SE6       30.08F
RUSSELL        PTCLDY    65  65 100 E7        30.07S FOG
CONCORDIA      PTCLDY    65  61  87 CALM      30.08S
SALINA         CLEAR     70  68  93 CALM      30.07S
TOPEKA         CLEAR     67  65  93 CALM      30.05R FOG



USA.gov is the U.S. government's official web portal to all federal, state and local government web resources and services.